Location: Borovka
(49.7741°N, 14.5280°E)
Time: 00:45:22
(UTC+00:00)

Tsikada Rocket - Pass Details

Date: 17 November 2025
Orbit: 957 x 1008 km, 82.9° (Epoch: 13 December)

Event Time Altitude Azimuth Distance (km) Brightness Sun altitude
Rises 15:58:48 0° 350° (N) 3,752 6.9 -7.1°
Reaches altitude 10° 16:01:21 10° 352° (N) 2,796 6.3 -7.5°
Maximum altitude 16:07:48 81° 80° (E) 1,020 4.1 -8.4°
Drops below altitude 10° 16:14:10 10° 168° (SSE) 2,754 6.5 -9.4°
Sets 16:16:40 0° 170° (S) 3,692 7.1 -9.8°
